Weather History for KPPO - March, 2013

Change the Weather History Date:

Tuesday, March 12, 2013

  Actual Average (KVPZ) Record (KVPZ)
Temperature  
Mean Temperature 32 °F 36 °F  
Max Temperature 36 °F 45 °F 76 °F (1990)
Min Temperature 27 °F 28 °F 3 °F (1896)
Degree Days  
Heating Degree Days 34 29  
Month to date heating degree days 369  
Since 1 July heating degree days 5101  
Cooling Degree Days 0 0  
Month to date cooling degree days 0  
Year to date cooling degree days 0  
Moisture  
Dew Point 26 °F    
Average Humidity 79    
Maximum Humidity 96    
Minimum Humidity 58    
Precipitation  
Precipitation 0.00 in 0.07 in 1.33 in (1920)
Month to date precipitation 0.89  
Year to date precipitation 4.06  
Sea Level Pressure  
Sea Level Pressure 29.90 in    
Wind  
Wind Speed 12 mph (West)    
Max Wind Speed 22 mph    
Max Gust Speed 28 mph    
Visibility 8 miles    
Events Snow    
T = Trace of Precipitation, MM = Missing Value Source: NWS Daily Summary

Daily Weather History Graph

Daily Weather History Graph

Search for Another Location

Airport or City:

Trip Planner

Search our weather history database for the weather conditions in past years. The results will help you decide how hot, cold, wet, or windy it might be!

Date:

Astronomy

Mar. 12, 2013 Rise Set
Actual Time 7:03 AM CDT 6:50 PM CDT
Civil Twilight 6:35 AM CDT 7:18 PM CDT
Nautical Twilight 6:03 AM CDT 7:50 PM CDT
Astronomical Twilight 5:31 AM CDT 8:22 PM CDT
Moon 7:08 AM CDT (3/12) 8:06 PM CDT (3/12)
Length of Visible Light 12h 42m
Length of Day
11h 47m
New Moon, 1% of the Moon is Illuminated
Mar 12
New Moon
Mar 19
First Quarter
Mar 27
Full
Apr 2
Last Quarter
Apr 10
New

Hourly Weather History & Observations

Time (CDT) Temp. Windchill Dew Point Humidity Pressure Visibility Wind Dir Wind Speed Gust Speed Precip Events Conditions
12:15 AM 32.0 °F 23.0 °F 30.0 °F 92% 29.79 in 7.0 mi WSW 11.5 mph 16.1 mph N/A   Overcast
12:35 AM 32.0 °F 23.0 °F 30.0 °F 92% 29.79 in 7.0 mi West 11.5 mph - N/A   Overcast
12:55 AM 32.0 °F 23.6 °F 30.0 °F 92% 29.79 in 7.0 mi WSW 10.4 mph - N/A   Overcast
1:15 AM 32.0 °F 23.0 °F 30.0 °F 92% 29.80 in 5.0 mi West 11.5 mph - N/A   Overcast
1:35 AM 32.0 °F 22.5 °F 30.0 °F 92% 29.81 in 7.0 mi WSW 12.7 mph - N/A   Overcast
1:55 AM 31.8 °F 22.3 °F 29.5 °F 91% 29.82 in 5.0 mi West 12.7 mph 18.4 mph N/A   Overcast
2:15 AM 31.6 °F 23.1 °F 29.3 °F 91% 29.82 in 5.0 mi West 10.4 mph - N/A   Overcast
2:35 AM 31.5 °F 21.8 °F 29.3 °F 92% 29.82 in 7.0 mi West 12.7 mph 18.4 mph N/A   Overcast
2:55 AM 31.5 °F 22.3 °F 28.9 °F 90% 29.82 in 7.0 mi West 11.5 mph - N/A   Overcast
3:15 AM 31.6 °F 22.1 °F 28.4 °F 88% 29.83 in 10.0 mi West 12.7 mph 18.4 mph N/A   Overcast
3:35 AM 31.6 °F 21.2 °F 27.5 °F 85% 29.83 in 10.0 mi West 15.0 mph 20.7 mph N/A   Overcast
3:55 AM 31.5 °F 22.9 °F 27.5 °F 85% 29.83 in 10.0 mi West 10.4 mph 20.7 mph N/A   Overcast
4:15 AM 31.5 °F 22.3 °F 27.5 °F 85% 29.83 in 10.0 mi West 11.5 mph 21.9 mph N/A   Overcast
4:35 AM 31.1 °F 19.7 °F 27.5 °F 87% 29.84 in 7.0 mi West 17.3 mph - N/A   Overcast
4:55 AM 31.1 °F 21.4 °F 27.5 °F 87% 29.84 in 10.0 mi West 12.7 mph 18.4 mph N/A   Overcast
5:15 AM 30.6 °F 19.8 °F 27.0 °F 86% 29.86 in 7.0 mi West 15.0 mph 20.7 mph N/A   Overcast
5:35 AM 30.2 °F 20.2 °F 26.8 °F 87% 29.86 in 10.0 mi West 12.7 mph 18.4 mph N/A   Overcast
5:55 AM 30.2 °F 19.8 °F 26.4 °F 86% 29.86 in 10.0 mi West 13.8 mph 18.4 mph N/A   Overcast
6:15 AM 30.0 °F 19.5 °F 25.9 °F 85% 29.87 in 10.0 mi West 13.8 mph 21.9 mph N/A   Overcast
6:35 AM 30.0 °F 19.5 °F 25.7 °F 84% 29.87 in 10.0 mi West 13.8 mph 17.3 mph N/A   Overcast
6:55 AM 29.7 °F 20.1 °F 26.1 °F 86% 29.88 in 5.0 mi West 11.5 mph 17.3 mph N/A   Overcast
7:15 AM 29.7 °F 20.7 °F 26.1 °F 86% 29.88 in 10.0 mi WSW 10.4 mph - N/A   Overcast
7:55 AM 30.0 °F 21.7 °F 25.5 °F 83% 29.89 in 10.0 mi WSW 9.2 mph - N/A   Overcast
8:15 AM 30.0 °F 21.1 °F 24.8 °F 81% 29.90 in 10.0 mi West 10.4 mph - N/A   Overcast
8:35 AM 30.0 °F 19.5 °F 24.4 °F 80% 29.90 in 10.0 mi WSW 13.8 mph - N/A   Overcast
8:55 AM 30.2 °F 19.8 °F 22.8 °F 74% 29.90 in 10.0 mi WSW 13.8 mph 20.7 mph N/A   Overcast
9:15 AM 30.2 °F 20.8 °F 23.5 °F 76% 29.90 in 10.0 mi West 11.5 mph 16.1 mph N/A   Overcast
9:35 AM 29.8 °F 20.3 °F 24.1 °F 79% 29.90 in 10.0 mi WSW 11.5 mph - N/A   Overcast
9:55 AM 29.7 °F 20.7 °F 25.0 °F 83% 29.91 in 10.0 mi WSW 10.4 mph - N/A   Overcast
10:15 AM 30.2 °F 20.2 °F 24.1 °F 78% 29.91 in 10.0 mi WSW 12.7 mph - N/A   Overcast
10:35 AM 31.5 °F 21.4 °F 23.7 °F 73% 29.92 in 10.0 mi WSW 13.8 mph 19.6 mph N/A   Overcast
10:55 AM 31.6 °F 22.6 °F 23.9 °F 73% 29.92 in 10.0 mi WSW 11.5 mph - N/A   Overcast
11:15 AM 31.5 °F 22.9 °F 23.9 °F 74% 29.92 in 10.0 mi WSW 10.4 mph - N/A   Overcast
11:35 AM 32.0 °F 21.6 °F 22.6 °F 68% 29.92 in 10.0 mi West 15.0 mph - N/A   Overcast
11:55 AM 32.7 °F 22.5 °F 24.3 °F 71% 29.92 in 10.0 mi WSW 15.0 mph 20.7 mph N/A   Overcast
12:15 PM 33.1 °F 23.9 °F 23.5 °F 68% 29.92 in 10.0 mi WSW 12.7 mph - N/A   Overcast
12:35 PM 33.3 °F 22.8 °F 24.8 °F 71% 29.92 in 10.0 mi WSW 16.1 mph 24.2 mph N/A   Overcast
12:55 PM 34.2 °F 24.4 °F 23.5 °F 65% 29.92 in 10.0 mi West 15.0 mph 19.6 mph N/A   Overcast
1:15 PM 34.0 °F 25.0 °F 23.0 °F 64% 29.91 in 10.0 mi WSW 12.7 mph - N/A   Overcast
1:35 PM 34.5 °F 24.1 °F 22.6 °F 62% 29.91 in 10.0 mi WSW 17.3 mph 25.3 mph N/A   Overcast
1:55 PM 34.0 °F 23.4 °F 21.4 °F 60% 29.91 in 10.0 mi WSW 17.3 mph 24.2 mph N/A   Overcast
2:15 PM 34.2 °F 23.6 °F 20.8 °F 58% 29.91 in 10.0 mi West 17.3 mph 25.3 mph N/A   Overcast
2:35 PM 34.0 °F 22.1 °F 20.7 °F 58% 29.91 in 10.0 mi West 21.9 mph 27.6 mph N/A   Overcast
2:55 PM 33.4 °F 23.5 °F 22.3 °F 64% 29.92 in 10.0 mi West 15.0 mph 25.3 mph N/A   Overcast
3:15 PM 34.3 °F 23.2 °F 22.1 °F 61% 29.92 in 10.0 mi West 19.6 mph 24.2 mph N/A   Overcast
3:35 PM 34.5 °F 23.8 °F 22.1 °F 61% 29.91 in 10.0 mi West 18.4 mph 26.5 mph N/A   Mostly Cloudy
3:55 PM 34.9 °F 25.7 °F 22.6 °F 61% 29.92 in 10.0 mi West 13.8 mph 18.4 mph N/A   Overcast
4:15 PM 34.7 °F 24.3 °F 21.7 °F 59% 29.92 in 10.0 mi West 17.3 mph 23.0 mph N/A   Overcast
4:35 PM 35.4 °F 26.4 °F 22.1 °F 58% 29.91 in 10.0 mi WSW 13.8 mph 19.6 mph N/A   Overcast
4:55 PM 35.8 °F 27.3 °F 22.5 °F 58% 29.91 in 10.0 mi West 12.7 mph - N/A   Scattered Clouds
5:15 PM 35.2 °F 26.6 °F 22.5 °F 60% 29.91 in 10.0 mi West 12.7 mph 18.4 mph N/A   Mostly Cloudy
5:35 PM 32.2 °F 22.7 °F 27.3 °F 82% 29.93 in 1.5 mi West 12.7 mph 17.3 mph N/A Snow Light Snow
5:55 PM 31.1 °F 23.1 °F 29.3 °F 93% 29.93 in 0.5 mi West 9.2 mph - N/A Snow Snow
6:15 PM 31.1 °F 24.5 °F 30.2 °F 96% 29.93 in 7.0 mi West 6.9 mph - N/A Snow Light Snow
6:35 PM 31.5 °F 23.5 °F 30.2 °F 95% 29.93 in 1.2 mi WSW 9.2 mph 17.3 mph N/A Snow Light Snow
6:55 PM 31.1 °F 23.1 °F 30.0 °F 96% 29.93 in 10.0 mi WSW 9.2 mph - N/A   Overcast
7:15 PM 31.1 °F 23.1 °F 29.8 °F 95% 29.94 in 7.0 mi West 9.2 mph - N/A   Overcast
7:35 PM 31.1 °F 23.7 °F 28.6 °F 90% 29.94 in 10.0 mi WSW 8.1 mph - N/A   Overcast
7:55 PM 30.9 °F 23.5 °F 28.9 °F 92% 29.94 in 10.0 mi WSW 8.1 mph - N/A   Overcast
8:15 PM 30.9 °F 22.2 °F 28.4 °F 90% 29.94 in 10.0 mi West 10.4 mph - N/A   Overcast
8:35 PM 30.9 °F 21.7 °F 28.0 °F 89% 29.94 in 1.0 mi WSW 11.5 mph 19.6 mph N/A Snow Light Snow
8:55 PM 30.4 °F 21.0 °F 26.8 °F 86% 29.94 in 10.0 mi West 11.5 mph - N/A   Overcast
9:15 PM 30.0 °F 20.5 °F 25.2 °F 82% 29.95 in 10.0 mi West 11.5 mph 17.3 mph N/A   Overcast
9:35 PM 30.2 °F 20.8 °F 25.7 °F 83% 29.95 in 10.0 mi West 11.5 mph 17.3 mph N/A   Overcast
9:55 PM 30.0 °F 19.5 °F 25.7 °F 84% 29.96 in 4.0 mi West 13.8 mph 19.6 mph N/A Snow Light Snow
10:15 PM 29.3 °F 20.8 °F 25.7 °F 86% 29.96 in 3.0 mi WNW 9.2 mph 26.5 mph N/A Snow Light Snow
10:35 PM 29.3 °F 20.8 °F 21.0 °F 71% 29.97 in 10.0 mi WNW 9.2 mph 17.3 mph N/A   Overcast
10:55 PM 29.1 °F 23.0 °F 20.8 °F 71% 29.97 in 10.0 mi WNW 5.8 mph 17.3 mph N/A   Overcast
11:15 PM 28.4 °F 19.1 °F 20.3 °F 72% 29.97 in 10.0 mi WNW 10.4 mph 21.9 mph N/A Snow Light Snow
11:35 PM 28.2 °F 18.9 °F 20.3 °F 72% 29.98 in 7.0 mi WNW 10.4 mph 17.3 mph N/A Snow Light Snow
11:55 PM 27.9 °F 19.1 °F 21.0 °F 75% 29.98 in 7.0 mi WNW 9.2 mph 23.0 mph N/A Snow Light Snow